Vorticity
17 17 17 20 23 24 23 22 22 20 21 24 25 26 33 40 41 32 15 4 10 19 15 10 13 15 13 8 6 6 6 7 6 4 8 15 22 34 40 43 43 34 21 14 7 -5 -6 9 7 -5 1 12 19 23 13 2 -1 -3 -3 -2 3 16 20 13 9 5 3 6 10 14 15 10 7 6
16 20 25 27 27 25 24 22 22 24 24 24 26 26 27 34 38 39 33 16 4 13 20 14 8 12 17 14 7 5 4 6 9 5 5 10 14 24 35 38 39 41 37 27 21 10 -6 -1 9 4 -3 -1 11 23 20 11 4 -4 -4 -1 -2 6 16 18 16 8 1 3 6 10 16 13 8 10
25 30 28 25 20 16 16 17 17 20 22 23 25 27 28 31 34 35 41 35 16 9 15 18 14 7 11 19 14 6 3 2 8 9 4 5 10 16 27 36 35 35 39 36 33 31 13 -2 2 3 -10 -15 -0 15 14 15 16 4 -3 1 2 3 8 15 21 14 4 2 1 4 13 15 11 9
29 29 21 15 14 13 12 14 17 17 19 19 21 24 27 30 32 33 40 42 29 20 15 13 19 15 6 14 20 13 5 0 2 10 9 3 6 12 18 29 34 31 32 32 31 38 34 12 -2 0 -3 -13 -11 5 12 13 18 15 5 1 3 5 5 8 17 19 12 5 0 -0 6 12 13 9
27 20 15 13 12 13 13 15 19 20 21 21 21 21 22 25 30 30 37 43 33 30 29 14 13 22 13 5 16 20 11 4 0 4 10 7 3 8 14 22 31 32 29 28 25 30 41 34 10 -4 2 6 -1 -2 5 8 10 14 13 6 2 4 6 5 9 17 18 11 4 1 3 6 10 10
25 16 13 13 12 13 14 16 20 22 25 26 26 27 24 22 26 26 29 40 34 29 40 31 11 18 23 8 7 19 18 11 3 0 7 10 5 5 9 17 28 32 27 27 25 22 30 44 37 12 -3 3 7 4 4 2 0 5 13 13 4 0 3 4 4 10 17 17 10 3 3 4 6 10
22 16 13 14 16 16 15 19 24 27 31 33 32 32 31 26 28 29 25 32 35 27 37 47 24 12 24 20 6 10 19 17 9 1 2 9 9 5 5 11 24 32 26 22 23 21 18 30 46 40 17 0 -1 6 11 6 2 4 11 15 9 2 0 2 3 5 11 18 16 5 3 5 5 7
18 14 14 17 18 18 22 27 31 33 34 32 27 23 26 26 26 32 30 28 34 29 29 48 44 19 17 25 16 7 12 19 15 5 1 6 9 7 5 7 20 31 27 16 19 24 16 15 30 41 37 21 5 2 8 8 6 8 12 16 13 6 1 -0 1 4 6 14 18 10 3 4 6 5
16 13 16 19 18 22 32 33 33 36 28 18 16 16 19 23 20 25 33 32 33 33 28 40 52 36 17 21 25 15 8 14 19 10 3 5 8 9 7 3 12 30 32 14 10 25 25 13 16 27 33 32 23 15 10 6 5 7 10 15 16 11 6 1 -1 3 5 9 15 15 8 4 3 3
14 14 17 18 21 29 35 35 33 30 19 10 13 15 16 21 21 21 29 34 34 35 32 34 48 48 28 18 25 25 13 10 17 15 7 5 6 8 9 5 5 22 39 24 -0 11 30 22 14 21 27 27 25 25 23 12 5 5 8 12 16 15 11 6 1 3 5 6 10 14 13 8 4 2
14 14 18 18 25 34 36 35 30 17 9 9 10 10 11 16 21 22 26 32 35 36 33 33 43 50 40 23 21 28 21 12 14 16 11 8 7 6 7 9 5 9 33 38 8 -2 20 27 18 17 24 27 24 23 29 24 9 4 6 8 13 15 13 10 5 3 5 7 8 11 13 15 12 4
15 12 18 19 27 40 38 28 19 8 6 9 8 9 13 17 21 22 20 24 31 34 34 35 40 47 46 31 21 26 27 18 14 15 13 9 8 7 6 8 8 6 21 39 23 0 9 25 23 18 19 25 26 21 26 29 18 8 5 5 9 14 15 14 8 4 5 7 7 8 10 15 18 12
14 12 18 21 31 44 36 17 9 6 6 9 12 13 13 15 20 23 23 24 27 31 35 38 40 42 46 39 25 24 29 24 16 14 14 11 7 7 8 7 7 6 14 34 30 6 5 18 23 24 22 22 24 22 24 29 24 14 7 3 5 13 17 15 10 6 4 6 8 7 7 13 20 19
13 12 16 23 37 44 28 10 5 4 4 7 10 9 8 11 17 24 30 28 24 30 37 39 40 38 42 43 32 25 29 27 21 16 14 14 10 5 6 7 8 6 9 29 34 11 0 10 17 22 24 22 19 17 20 27 28 21 13 4 1 9 18 16 10 9 5 4 8 6 5 12 17 23
18 12 15 26 40 41 23 7 3 3 7 10 7 5 8 9 13 24 36 31 24 30 34 33 36 36 38 43 37 30 30 27 23 19 13 13 14 8 5 5 7 7 8 22 34 19 1 4 12 17 19 19 18 15 17 23 27 26 19 10 3 5 16 18 9 9 8 3 6 7 4 11 15 21
23 14 14 26 39 39 22 5 1 3 7 8 6 7 8 6 9 24 36 31 26 30 29 25 30 32 32 37 36 32 33 28 24 20 12 12 15 11 7 6 6 6 8 17 30 27 10 2 8 15 17 15 15 15 16 20 26 28 23 16 8 3 12 20 11 8 11 6 6 7 2 10 18 11
28 18 15 23 37 39 22 4 -2 1 5 5 4 7 7 5 13 25 32 33 31 28 24 22 26 29 30 33 32 29 28 26 24 20 10 10 16 14 9 7 6 6 6 14 26 28 17 5 3 12 19 18 15 14 13 14 20 27 26 21 13 4 7 18 14 7 12 10 6 8 4 6 19 14
31 23 15 20 36 39 23 6 -1 -2 3 5 3 7 9 9 17 24 29 38 37 23 18 22 26 30 33 32 30 28 26 25 24 18 11 11 13 13 11 7 6 6 5 10 22 27 21 9 2 7 18 20 17 14 13 11 12 20 27 25 18 9 5 13 16 8 8 13 8 7 8 4 14 23
33 29 16 15 33 41 24 10 7 4 4 3 1 7 9 8 19 28 35 45 38 18 12 18 22 30 34 30 26 24 24 29 30 19 13 17 16 10 12 10 4 5 7 9 18 25 23 14 5 5 11 17 19 16 13 12 11 15 23 27 24 16 6 7 16 13 7 13 12 6 10 7 8 26
29 36 24 11 27 44 30 12 10 11 6 2 3 8 9 8 17 33 47 47 25 8 11 17 21 30 33 29 26 23 22 29 35 24 11 15 19 12 10 12 6 5 7 8 15 24 24 16 8 5 7 11 17 20 16 13 13 14 18 25 26 23 13 4 11 17 10 10 14 9 9 10 7 20
22 34 32 16 20 42 40 17 8 10 7 4 4 6 9 11 14 34 58 47 13 7 15 12 14 18 17 20 22 21 23 24 25 28 21 12 16 16 10 9 7 5 7 9 13 21 24 18 9 7 9 9 13 22 21 13 13 15 16 23 25 24 20 8 6 16 16 10 13 12 9 11 11 17
18 28 34 24 16 35 46 27 11 12 9 4 4 5 12 17 13 29 61 46 6 3 6 -1 13 18 6 12 13 5 19 28 19 29 38 21 11 15 13 10 7 5 7 10 12 19 24 21 11 6 9 9 10 20 23 15 11 12 13 19 23 22 21 14 6 13 18 15 12 13 13 11 10 16
16 23 31 27 16 27 46 36 18 15 10 2 3 5 10 17 9 19 55 45 1 -7 -1 2 27 32 5 5 10 -1 10 21 9 20 46 37 17 13 12 11 9 4 5 10 12 17 23 24 15 7 6 7 9 16 22 19 13 10 10 15 20 22 21 17 10 11 17 19 13 11 15 14 9 17
14 20 29 30 18 21 41 42 26 19 11 0 1 2 3 12 9 14 47 44 -2 -14 4 11 23 29 14 14 22 16 12 4 -11 3 33 39 29 22 14 10 10 6 5 10 12 16 24 27 20 10 5 4 4 9 17 24 21 13 10 12 16 20 21 18 14 12 16 21 17 11 14 14 10 16
11 16 28 33 23 16 31 44 35 22 11 -0 -2 0 2 9 9 10 35 43 8 -11 5 10 5 12 18 19 22 30 30 11 -9 0 19 22 21 23 17 10 10 8 6 10 13 15 24 29 22 13 7 4 3 4 11 22 27 20 13 11 13 17 19 19 18 15 17 22 20 13 14 14 12 15
12 12 22 35 31 17 21 40 43 27 12 2 -0 1 3 5 5 8 28 38 17 -2 6 14 7 8 17 12 4 17 31 17 -0 9 22 19 18 22 18 11 11 9 7 11 14 15 23 29 24 17 10 4 5 6 8 18 28 24 17 13 12 15 17 17 18 17 17 22 22 16 14 15 13 14
18 10 15 30 37 25 15 30 46 38 16 4 1 2 5 4 2 9 24 27 16 8 14 19 15 14 25 26 10 5 14 13 10 21 27 20 18 22 18 10 9 10 10 11 14 16 22 26 23 20 14 7 9 10 9 16 26 25 20 17 13 13 15 15 17 18 18 20 22 18 13 15 15 12
26 14 10 20 35 36 21 19 39 47 28 10 4 3 5 6 3 7 17 22 21 16 9 9 12 12 21 32 26 16 15 16 17 23 23 18 18 19 16 11 9 9 11 13 14 16 23 25 21 20 15 7 8 13 13 15 22 23 21 19 16 13 12 12 14 16 18 19 23 22 13 10 15 13
30 22 13 13 25 38 32 18 26 45 42 22 8 3 4 6 5 6 10 15 18 13 0 2 14 15 9 10 15 19 21 15 9 11 14 16 17 16 13 12 11 10 11 14 16 16 22 23 20 20 19 5 -1 10 18 17 20 23 19 14 14 13 10 10 11 13 16 18 20 24 19 10 13 14
29 28 20 13 16 30 38 25 16 31 47 39 18 4 4 6 5 5 7 9 10 9 4 5 9 9 7 7 7 14 20 13 5 7 12 15 16 16 14 13 14 14 13 13 15 17 21 24 19 19 24 13 -2 2 14 15 16 23 24 16 13 14 12 12 12 12 14 16 16 21 22 13 10 13
23 29 26 18 13 21 37 37 21 17 35 49 37 15 4 5 5 4 5 7 7 6 7 12 9 2 7 14 11 10 14 13 8 10 15 16 16 17 18 17 17 19 17 13 12 13 18 24 21 16 22 22 9 2 9 15 14 18 24 22 18 17 16 14 13 13 12 13 13 17 21 16 10 11
15 24 29 26 16 13 26 40 36 20 18 36 48 37 15 3 4 6 3 3 6 4 5 15 16 4 1 7 8 6 9 12 12 13 14 15 14 15 17 18 19 19 17 13 11 11 13 19 21 16 17 22 17 7 8 16 17 15 19 22 19 19 19 16 15 14 13 12 11 11 17 18 12 11
11 16 26 30 23 13 14 27 39 34 19 18 35 49 40 16 2 3 4 3 4 5 5 12 17 9 1 3 4 5 9 10 10 12 13 12 12 13 13 12 14 14 13 10 10 10 12 15 18 18 17 17 16 12 10 16 20 17 16 19 19 18 18 17 15 14 13 15 15 12 13 17 15 11
9 12 20 28 26 19 13 15 27 38 33 19 16 32 49 43 20 4 2 3 3 4 3 8 16 14 6 2 2 5 11 11 8 9 12 11 10 12 13 12 12 11 11 11 11 10 11 12 15 18 19 16 13 11 11 14 19 19 16 16 19 20 19 17 15 14 13 14 16 15 13 15 17 14
9 9 15 23 27 25 18 13 16 28 36 33 19 13 27 47 46 28 10 1 0 3 1 3 13 16 9 3 3 5 8 9 7 6 8 9 8 7 9 12 13 12 11 12 12 11 11 13 13 14 18 18 13 9 8 9 15 20 18 14 14 18 21 20 17 15 15 14 15 16 16 15 17 16
10 9 10 16 23 27 24 17 13 17 27 36 35 21 12 22 40 48 38 18 3 1 1 1 8 15 12 5 3 4 6 7 7 6 6 9 9 6 5 8 12 14 14 12 11 10 10 12 13 13 14 16 15 11 8 5 7 15 19 16 13 13 17 19 17 14 15 17 16 16 16 18 19 18
10 9 9 11 17 23 27 23 17 15 18 25 34 34 23 13 16 33 48 45 26 11 5 4 5 10 14 10 4 2 5 6 6 5 5 8 10 8 6 7 9 12 14 14 13 12 10 9 11 12 12 14 14 13 11 9 6 9 14 17 16 14 14 16 16 13 11 13 16 16 15 16 19 21
8 9 8 9 13 17 23 25 23 18 15 18 25 32 33 25 14 12 27 46 48 33 18 12 9 7 10 13 8 2 2 4 5 5 4 5 8 8 6 6 8 10 13 14 13 13 12 10 9 10 10 11 12 12 12 10 9 9 11 14 15 15 15 16 18 16 12 9 10 13 14 16 17 19
7 9 8 8 11 14 17 21 23 21 17 16 19 24 30 32 27 15 10 24 44 49 36 22 15 11 10 12 11 6 2 2 3 4 3 3 5 6 5 5 6 7 9 13 13 14 14 12 11 10 10 10 10 11 11 11 10 9 10 13 15 15 15 15 17 18 17 13 10 9 10 14 17 18
5 8 8 8 9 13 16 18 20 22 20 16 15 19 24 28 31 28 17 10 21 42 48 37 23 15 12 12 11 9 5 2 2 3 3 3 4 4 3 3 4 4 5 8 11 13 13 13 13 12 12 11 11 11 11 11 10 9 9 11 13 14 15 15 15 16 17 16 15 13 10 10 14 17
5 5 8 9 8 9 15 19 20 20 21 20 16 15 18 23 26 30 29 19 11 19 38 46 38 26 17 14 14 12 8 5 3 2 2 2 3 4 3 2 2 2 2 4 8 11 11 12 12 12 12 12 13 12 12 11 10 9 9 9 11 13 14 15 14 14 15 14 13 15 14 12 12 14
7 5 5 8 8 7 10 16 20 21 21 20 19 16 15 19 22 24 29 31 22 13 17 31 41 39 28 19 16 16 14 10 5 3 2 3 3 3 2 2 2 2 1 1 5 10 10 10 11 11 10 10 12 12 12 12 11 10 9 8 9 10 12 15 14 13 13 14 13 12 14 14 14 14
8 6 5 6 8 8 8 10 16 21 23 21 21 19 15 15 17 20 23 28 31 26 17 16 24 35 37 31 24 19 18 17 13 8 4 2 2 3 3 2 1 1 0 -1 1 6 9 10 10 11 10 10 10 10 11 11 11 11 10 9 9 10 10 12 15 14 13 13 12 11 12 14 14 14
9 8 6 5 6 7 8 8 10 15 21 23 22 22 20 15 14 16 19 21 25 30 29 22 17 18 26 34 34 28 22 20 19 17 12 7 4 3 3 3 2 2 1 -1 -2 0 4 7 9 10 10 11 11 11 10 10 9 9 10 9 8 10 11 11 12 14 15 14 13 11 11 13 13 13
10 9 7 6 6 6 7 8 7 9 14 20 22 22 23 21 17 15 16 18 19 22 27 31 28 21 17 20 27 32 31 27 22 20 19 16 13 8 5 3 3 2 2 2 -1 -2 -1 2 6 9 10 10 11 11 11 11 10 8 9 8 6 7 10 12 12 12 13 15 15 14 13 13 14 13
Height
5217 5213 5209 5207 5204 5201 5199 5197 5195 5194 5193 5193 5193 5193 5195 5198 5203 5208 5213 5220 5227 5231 5236 5243 5246 5249 5254 5261 5268 5276 5285 5291 5297 5303 5310 5318 5325 5332 5338 5346 5354 5362 5370 5378 5389 5400 5411 5420 5431 5441 5450 5458 5466 5474 5484 5494 5503 5512 5519 5526 5534 5542 5551 5559 5567 5574 5582 5590 5597 5604 5611 5617 5622 5626
5213 5209 5205 5202 5199 5196 5194 5192 5190 5189 5188 5187 5186 5186 5187 5189 5193 5196 5201 5209 5215 5219 5225 5233 5237 5239 5242 5249 5257 5266 5276 5283 5288 5296 5303 5310 5317 5323 5329 5336 5345 5353 5361 5370 5379 5390 5402 5412 5422 5432 5442 5450 5457 5466 5475 5485 5493 5502 5510 5517 5526 5534 5543 5552 5560 5567 5573 5581 5589 5597 5604 5610 5616 5620
5210 5205 5201 5198 5195 5192 5189 5187 5185 5184 5182 5181 5180 5180 5180 5181 5184 5186 5191 5199 5205 5208 5214 5221 5225 5228 5231 5238 5247 5257 5266 5274 5281 5288 5296 5303 5309 5314 5321 5329 5337 5344 5353 5362 5371 5381 5392 5404 5414 5423 5432 5441 5449 5457 5467 5476 5485 5493 5501 5509 5518 5527 5535 5544 5552 5559 5565 5572 5581 5588 5595 5602 5608 5613
5207 5202 5198 5194 5191 5188 5185 5182 5180 5178 5176 5175 5174 5174 5174 5174 5176 5177 5181 5189 5195 5197 5201 5207 5212 5217 5221 5228 5237 5247 5256 5265 5273 5280 5288 5295 5300 5306 5314 5322 5328 5336 5344 5353 5362 5372 5382 5394 5405 5414 5424 5433 5442 5450 5459 5468 5476 5484 5493 5501 5510 5519 5527 5535 5543 5551 5558 5564 5571 5579 5586 5593 5599 5606
5203 5199 5195 5192 5188 5184 5181 5178 5175 5173 5171 5169 5168 5168 5168 5168 5168 5169 5172 5178 5184 5186 5188 5193 5199 5205 5212 5220 5228 5237 5247 5255 5264 5272 5280 5287 5294 5301 5308 5314 5321 5328 5336 5344 5354 5363 5373 5384 5395 5405 5415 5425 5434 5442 5451 5459 5468 5476 5485 5493 5502 5511 5519 5527 5536 5544 5551 5557 5563 5570 5578 5584 5590 5597
5201 5197 5193 5189 5185 5181 5176 5173 5170 5168 5165 5164 5162 5162 5162 5162 5161 5162 5163 5167 5173 5176 5177 5181 5188 5195 5203 5212 5219 5227 5237 5245 5254 5265 5274 5281 5288 5295 5302 5308 5314 5321 5329 5337 5346 5355 5365 5375 5385 5396 5406 5416 5425 5434 5443 5451 5460 5468 5477 5485 5494 5502 5511 5520 5528 5536 5543 5549 5556 5563 5570 5576 5582 5589
5200 5196 5191 5186 5182 5177 5173 5169 5165 5163 5160 5159 5158 5157 5157 5157 5156 5156 5157 5159 5163 5167 5168 5171 5179 5186 5194 5204 5210 5216 5226 5237 5247 5260 5269 5275 5282 5289 5296 5302 5309 5316 5322 5330 5339 5348 5357 5367 5376 5387 5397 5407 5416 5425 5434 5443 5452 5460 5469 5477 5486 5495 5504 5512 5520 5528 5535 5542 5548 5555 5562 5569 5575 5581
5199 5194 5189 5184 5179 5174 5169 5165 5161 5159 5157 5155 5154 5154 5153 5153 5152 5151 5151 5152 5154 5159 5161 5164 5170 5177 5184 5194 5200 5206 5218 5231 5242 5254 5263 5269 5276 5283 5290 5297 5304 5310 5317 5325 5332 5341 5351 5360 5369 5379 5389 5398 5407 5416 5425 5435 5443 5452 5460 5469 5478 5487 5496 5504 5512 5520 5527 5534 5540 5546 5553 5561 5567 5574
5198 5192 5187 5182 5177 5171 5166 5162 5158 5156 5155 5154 5153 5152 5151 5150 5149 5148 5147 5147 5148 5152 5155 5157 5161 5167 5175 5184 5192 5200 5212 5225 5237 5247 5256 5263 5270 5278 5284 5292 5299 5305 5311 5319 5327 5335 5344 5353 5363 5372 5381 5390 5398 5407 5416 5426 5435 5444 5453 5461 5470 5479 5488 5497 5504 5512 5519 5526 5532 5538 5545 5551 5559 5566
5196 5190 5185 5180 5174 5169 5164 5160 5157 5156 5155 5154 5152 5151 5150 5149 5147 5145 5144 5143 5144 5146 5148 5150 5153 5159 5168 5177 5186 5195 5206 5219 5232 5241 5250 5257 5264 5272 5279 5287 5294 5300 5306 5313 5322 5330 5337 5346 5356 5365 5373 5382 5390 5398 5407 5417 5427 5436 5445 5453 5462 5471 5480 5489 5497 5504 5512 5519 5525 5531 5537 5543 5551 5559
5194 5189 5183 5178 5172 5166 5162 5159 5157 5156 5155 5154 5152 5150 5149 5148 5146 5143 5141 5140 5140 5140 5142 5144 5148 5155 5163 5172 5180 5189 5200 5214 5226 5235 5243 5251 5260 5267 5275 5282 5289 5294 5300 5307 5315 5323 5331 5339 5348 5357 5365 5374 5382 5390 5398 5408 5419 5428 5437 5446 5454 5463 5472 5481 5489 5496 5504 5511 5518 5524 5530 5536 5544 5552
5193 5188 5182 5176 5170 5165 5162 5160 5158 5157 5155 5154 5152 5151 5149 5147 5144 5142 5139 5137 5136 5137 5138 5141 5145 5151 5158 5166 5173 5184 5196 5209 5219 5228 5235 5244 5253 5262 5270 5277 5283 5289 5294 5301 5308 5317 5324 5332 5341 5350 5358 5366 5374 5381 5390 5400 5410 5420 5429 5438 5447 5456 5464 5473 5481 5489 5496 5503 5510 5516 5522 5529 5537 5546
5192 5188 5181 5175 5170 5165 5162 5161 5159 5157 5156 5154 5153 5151 5149 5146 5143 5140 5137 5136 5135 5135 5136 5139 5143 5148 5154 5161 5169 5180 5192 5203 5213 5221 5230 5239 5248 5256 5264 5271 5277 5283 5289 5295 5302 5311 5319 5326 5334 5343 5351 5360 5367 5375 5382 5392 5402 5412 5422 5431 5439 5448 5457 5465 5474 5481 5488 5496 5503 5509 5515 5523 5531 5539
5192 5187 5182 5176 5170 5166 5164 5162 5160 5159 5157 5155 5153 5151 5148 5146 5143 5139 5136 5135 5134 5134 5136 5139 5142 5146 5152 5159 5168 5178 5188 5198 5208 5217 5227 5236 5244 5250 5258 5265 5272 5278 5285 5291 5298 5306 5314 5321 5328 5336 5345 5354 5360 5368 5376 5386 5396 5405 5414 5423 5431 5440 5449 5457 5465 5473 5481 5488 5495 5502 5509 5517 5525 5532
5193 5187 5182 5177 5171 5168 5165 5164 5162 5160 5158 5156 5154 5151 5149 5146 5143 5139 5136 5134 5134 5134 5136 5139 5142 5146 5151 5158 5166 5176 5185 5194 5203 5212 5222 5232 5239 5246 5254 5261 5268 5275 5281 5287 5295 5302 5308 5316 5324 5332 5340 5347 5354 5362 5371 5380 5389 5397 5406 5414 5423 5432 5441 5449 5457 5465 5473 5480 5487 5495 5502 5510 5518 5526
5194 5188 5182 5177 5173 5169 5167 5165 5163 5161 5159 5157 5155 5153 5150 5147 5144 5140 5136 5135 5135 5136 5138 5140 5143 5147 5151 5157 5165 5174 5184 5192 5200 5209 5218 5227 5234 5243 5251 5259 5265 5271 5277 5283 5289 5296 5303 5312 5320 5327 5335 5342 5349 5357 5365 5373 5381 5388 5397 5406 5415 5424 5433 5441 5449 5457 5464 5472 5479 5487 5495 5502 5511 5519
5195 5189 5183 5178 5175 5171 5168 5167 5165 5163 5161 5159 5156 5154 5151 5149 5146 5142 5138 5137 5137 5138 5139 5142 5145 5148 5152 5158 5165 5172 5180 5189 5197 5206 5215 5223 5231 5240 5248 5254 5260 5266 5272 5278 5284 5291 5298 5307 5315 5323 5329 5336 5343 5351 5358 5366 5374 5381 5388 5397 5406 5416 5424 5433 5441 5449 5456 5463 5472 5479 5487 5495 5503 5511
5196 5190 5184 5180 5176 5172 5170 5168 5167 5165 5163 5161 5158 5155 5153 5150 5148 5144 5141 5140 5140 5141 5142 5145 5147 5150 5154 5159 5166 5172 5179 5186 5194 5203 5213 5220 5228 5236 5242 5247 5254 5261 5268 5274 5280 5287 5294 5303 5310 5317 5324 5330 5337 5345 5352 5359 5367 5374 5381 5390 5399 5408 5417 5425 5433 5441 5447 5455 5463 5471 5479 5487 5494 5503
5196 5190 5185 5181 5177 5173 5171 5169 5168 5166 5165 5162 5160 5157 5155 5152 5149 5146 5144 5143 5143 5145 5146 5148 5151 5154 5157 5162 5167 5173 5179 5185 5191 5199 5208 5216 5223 5230 5237 5243 5251 5258 5265 5271 5277 5284 5291 5298 5306 5312 5318 5325 5332 5338 5345 5353 5360 5368 5375 5383 5392 5400 5409 5418 5426 5433 5440 5447 5455 5463 5471 5479 5486 5495
5197 5191 5186 5182 5178 5174 5172 5170 5169 5168 5166 5164 5162 5159 5157 5155 5152 5149 5147 5146 5147 5149 5151 5152 5155 5159 5162 5166 5170 5174 5179 5184 5189 5196 5204 5212 5220 5227 5234 5242 5249 5256 5262 5268 5275 5281 5287 5294 5301 5307 5313 5320 5327 5333 5340 5348 5355 5362 5369 5376 5384 5393 5401 5410 5418 5425 5432 5440 5447 5455 5463 5471 5478 5486
5198 5193 5188 5184 5180 5175 5172 5171 5170 5169 5167 5166 5164 5162 5160 5157 5155 5152 5150 5151 5152 5154 5156 5158 5161 5163 5166 5169 5173 5176 5180 5184 5190 5197 5204 5211 5218 5226 5233 5241 5248 5254 5260 5266 5272 5277 5283 5290 5297 5303 5309 5316 5322 5329 5335 5342 5349 5356 5363 5370 5377 5385 5393 5402 5410 5418 5425 5433 5440 5447 5455 5463 5470 5478
5199 5194 5189 5185 5181 5177 5173 5171 5171 5170 5169 5167 5166 5165 5163 5160 5158 5156 5155 5155 5157 5159 5161 5163 5165 5166 5168 5171 5174 5178 5182 5188 5194 5200 5205 5211 5218 5225 5232 5239 5245 5251 5257 5263 5268 5274 5280 5287 5293 5299 5305 5311 5318 5324 5330 5337 5344 5351 5357 5364 5371 5378 5386 5394 5403 5411 5418 5425 5433 5440 5447 5455 5463 5469
5200 5194 5189 5186 5182 5178 5174 5172 5171 5171 5170 5169 5168 5167 5165 5164 5162 5161 5159 5160 5161 5163 5165 5166 5168 5169 5170 5173 5176 5180 5185 5191 5197 5201 5206 5212 5219 5225 5231 5237 5243 5249 5255 5260 5266 5272 5277 5283 5289 5295 5301 5307 5314 5320 5326 5332 5339 5345 5352 5358 5365 5372 5379 5387 5395 5404 5411 5418 5425 5432 5440 5448 5455 5462
5201 5195 5190 5186 5183 5179 5175 5173 5172 5172 5171 5171 5170 5169 5168 5167 5167 5165 5164 5164 5165 5167 5169 5170 5172 5173 5175 5177 5180 5184 5189 5193 5198 5204 5209 5214 5220 5225 5231 5237 5242 5248 5254 5259 5265 5270 5274 5280 5286 5291 5298 5304 5311 5316 5322 5328 5334 5340 5346 5353 5359 5366 5372 5380 5389 5397 5404 5411 5418 5425 5432 5440 5448 5455
5203 5197 5192 5187 5183 5180 5177 5175 5173 5173 5173 5172 5171 5171 5170 5170 5169 5168 5167 5168 5169 5170 5172 5174 5175 5177 5179 5180 5183 5187 5191 5195 5201 5206 5209 5214 5219 5224 5230 5236 5242 5248 5253 5258 5263 5267 5272 5277 5282 5288 5294 5301 5307 5312 5317 5323 5329 5335 5341 5348 5354 5360 5367 5374 5383 5391 5398 5404 5411 5418 5425 5432 5440 5449
5205 5199 5195 5190 5185 5181 5179 5176 5174 5174 5174 5173 5172 5172 5172 5172 5171 5171 5170 5171 5172 5174 5175 5177 5178 5180 5182 5184 5185 5189 5193 5197 5202 5205 5209 5214 5219 5224 5229 5235 5241 5246 5251 5255 5260 5264 5269 5274 5279 5285 5292 5298 5303 5308 5313 5318 5324 5330 5336 5342 5348 5354 5361 5368 5376 5384 5391 5398 5404 5412 5418 5425 5433 5441
5207 5201 5196 5192 5187 5183 5181 5178 5176 5175 5175 5174 5174 5173 5173 5173 5173 5173 5173 5174 5175 5177 5178 5180 5182 5184 5185 5187 5189 5192 5195 5199 5203 5206 5210 5215 5219 5224 5229 5234 5239 5244 5249 5253 5257 5261 5266 5271 5276 5282 5289 5294 5299 5304 5309 5314 5320 5325 5331 5337 5343 5349 5356 5363 5370 5378 5385 5391 5397 5404 5411 5418 5425 5433
5210 5204 5198 5193 5189 5186 5183 5180 5178 5176 5175 5176 5175 5175 5175 5175 5175 5175 5175 5176 5177 5178 5180 5182 5184 5186 5188 5190 5192 5195 5198 5201 5205 5208 5211 5215 5219 5223 5228 5233 5238 5243 5247 5250 5254 5259 5263 5268 5273 5279 5285 5291 5296 5301 5306 5310 5315 5321 5327 5332 5338 5344 5351 5357 5364 5371 5378 5385 5391 5398 5405 5412 5418 5425
5213 5208 5202 5196 5191 5187 5184 5182 5179 5177 5176 5176 5176 5176 5176 5176 5176 5177 5177 5178 5179 5180 5181 5183 5185 5188 5190 5192 5195 5197 5200 5203 5206 5209 5212 5215 5219 5223 5228 5232 5237 5241 5245 5248 5252 5256 5260 5265 5270 5276 5282 5287 5293 5297 5302 5306 5311 5316 5322 5327 5333 5339 5346 5352 5358 5365 5372 5378 5385 5392 5399 5405 5411 5418
5216 5210 5204 5199 5194 5189 5185 5182 5180 5178 5177 5177 5177 5177 5177 5177 5178 5178 5179 5180 5181 5182 5183 5184 5186 5188 5190 5193 5195 5198 5201 5204 5207 5210 5213 5216 5219 5223 5227 5231 5235 5239 5243 5246 5250 5254 5258 5263 5267 5272 5278 5284 5289 5294 5298 5302 5307 5312 5317 5322 5328 5334 5340 5346 5353 5359 5366 5372 5378 5384 5391 5397 5404 5410
5218 5213 5208 5203 5198 5193 5188 5184 5182 5180 5178 5177 5177 5178 5178 5178 5178 5179 5180 5181 5182 5183 5184 5185 5186 5188 5190 5193 5196 5199 5202 5205 5208 5211 5213 5216 5219 5223 5226 5230 5234 5237 5241 5244 5248 5252 5256 5260 5265 5269 5274 5279 5285 5289 5294 5298 5303 5308 5312 5318 5323 5328 5334 5341 5347 5353 5359 5365 5370 5377 5383 5391 5397 5404
5221 5216 5210 5205 5200 5195 5191 5187 5183 5181 5180 5178 5178 5178 5179 5179 5179 5180 5180 5181 5182 5183 5185 5186 5187 5189 5191 5193 5196 5199 5202 5205 5208 5211 5214 5216 5219 5222 5226 5229 5233 5236 5240 5243 5247 5250 5254 5258 5262 5266 5271 5276 5281 5286 5290 5294 5299 5303 5308 5313 5318 5323 5329 5334 5341 5347 5352 5358 5364 5370 5377 5384 5391 5397
5224 5217 5211 5205 5200 5196 5192 5188 5185 5183 5181 5179 5178 5178 5179 5179 5180 5180 5181 5181 5182 5184 5185 5186 5187 5189 5191 5193 5195 5199 5202 5205 5208 5210 5213 5216 5219 5222 5225 5229 5232 5235 5239 5242 5245 5249 5252 5255 5259 5264 5268 5273 5278 5282 5287 5291 5295 5299 5303 5308 5313 5318 5323 5329 5335 5340 5346 5352 5358 5364 5370 5377 5384 5390
5226 5219 5212 5206 5201 5197 5194 5190 5187 5184 5182 5180 5179 5179 5179 5179 5180 5180 5181 5181 5182 5183 5185 5186 5187 5189 5191 5192 5195 5198 5201 5204 5207 5210 5212 5215 5218 5221 5224 5228 5231 5234 5237 5240 5244 5247 5250 5253 5257 5261 5266 5270 5275 5279 5283 5287 5291 5295 5299 5303 5308 5312 5318 5323 5329 5335 5341 5347 5352 5358 5364 5370 5377 5383
5228 5221 5214 5209 5204 5200 5196 5193 5189 5186 5183 5181 5180 5179 5179 5179 5179 5180 5180 5181 5182 5183 5184 5186 5187 5189 5190 5192 5194 5197 5200 5203 5206 5209 5211 5214 5217 5220 5223 5226 5229 5232 5235 5238 5242 5245 5248 5252 5255 5259 5263 5267 5271 5276 5279 5283 5287 5291 5295 5299 5303 5307 5312 5318 5323 5329 5335 5341 5346 5352 5358 5364 5370 5377
5229 5223 5217 5212 5207 5203 5198 5195 5191 5188 5185 5183 5181 5180 5180 5179 5179 5179 5180 5180 5181 5182 5183 5185 5186 5188 5190 5192 5194 5196 5199 5202 5205 5207 5210 5213 5216 5219 5223 5225 5228 5231 5234 5236 5240 5243 5246 5249 5253 5256 5260 5264 5268 5272 5276 5279 5283 5287 5291 5295 5299 5303 5308 5313 5318 5324 5329 5335 5341 5346 5352 5358 5364 5370
5230 5225 5220 5214 5209 5205 5201 5197 5194 5190 5187 5184 5182 5181 5180 5179 5179 5179 5179 5179 5180 5182 5183 5184 5186 5187 5189 5191 5193 5195 5198 5200 5203 5206 5209 5212 5215 5218 5221 5224 5227 5230 5232 5235 5238 5241 5244 5247 5250 5254 5257 5261 5264 5268 5272 5276 5279 5283 5286 5290 5294 5299 5304 5308 5313 5318 5324 5329 5335 5340 5346 5352 5357 5363
5232 5226 5221 5216 5211 5207 5202 5198 5195 5192 5189 5186 5184 5181 5180 5179 5179 5179 5178 5178 5179 5180 5181 5183 5185 5187 5188 5190 5192 5194 5196 5199 5201 5204 5207 5210 5213 5216 5219 5222 5225 5228 5231 5233 5236 5239 5242 5245 5248 5251 5254 5258 5261 5265 5269 5272 5275 5279 5282 5286 5289 5294 5299 5303 5308 5313 5318 5323 5329 5334 5340 5345 5351 5356
5234 5229 5224 5219 5213 5209 5204 5200 5196 5193 5190 5188 5185 5183 5181 5180 5179 5178 5178 5178 5178 5178 5180 5181 5184 5186 5188 5189 5191 5193 5195 5197 5200 5202 5205 5208 5211 5214 5217 5220 5223 5226 5228 5231 5234 5237 5240 5242 5245 5248 5252 5255 5258 5262 5265 5269 5272 5275 5278 5282 5286 5290 5294 5299 5303 5308 5313 5318 5323 5328 5334 5339 5344 5349
5237 5231 5227 5222 5217 5212 5207 5202 5198 5194 5191 5189 5187 5184 5182 5180 5179 5178 5178 5178 5177 5177 5178 5180 5182 5184 5186 5188 5190 5191 5194 5196 5198 5200 5203 5206 5209 5212 5214 5217 5220 5223 5226 5229 5231 5234 5237 5240 5243 5245 5249 5252 5255 5259 5262 5265 5268 5271 5275 5278 5282 5286 5290 5294 5299 5303 5308 5312 5318 5323 5327 5332 5338 5343
5239 5234 5229 5225 5220 5215 5210 5205 5201 5197 5193 5190 5188 5186 5184 5181 5180 5178 5178 5177 5177 5177 5177 5178 5180 5182 5184 5187 5188 5190 5192 5194 5196 5198 5201 5203 5206 5209 5212 5214 5217 5220 5223 5225 5228 5231 5234 5237 5239 5242 5245 5249 5252 5255 5258 5261 5264 5268 5271 5274 5278 5282 5286 5290 5294 5298 5303 5307 5312 5317 5322 5327 5332 5338
5240 5235 5231 5226 5222 5217 5213 5208 5203 5199 5195 5192 5189 5187 5185 5183 5181 5179 5178 5177 5177 5177 5177 5178 5179 5180 5182 5184 5186 5189 5190 5192 5194 5196 5198 5201 5203 5206 5209 5211 5214 5217 5219 5222 5225 5228 5231 5233 5236 5239 5242 5245 5248 5251 5254 5257 5260 5263 5267 5270 5274 5277 5281 5285 5289 5294 5298 5303 5307 5312 5316 5322 5327 5333
5241 5236 5232 5228 5223 5219 5215 5210 5206 5201 5197 5194 5191 5188 5185 5184 5182 5180 5179 5178 5177 5177 5177 5177 5178 5179 5180 5182 5184 5186 5188 5190 5192 5194 5196 5198 5200 5203 5205 5208 5211 5213 5216 5218 5221 5224 5227 5230 5233 5235 5238 5241 5244 5247 5250 5253 5256 5260 5263 5266 5269 5273 5276 5280 5285 5289 5293 5297 5302 5306 5311 5316 5322 5327
5241 5237 5233 5229 5225 5220 5216 5212 5208 5204 5200 5196 5192 5189 5187 5184 5183 5181 5180 5178 5177 5177 5176 5177 5177 5178 5178 5179 5181 5183 5185 5187 5189 5191 5193 5195 5197 5199 5202 5204 5207 5209 5212 5214 5217 5220 5223 5226 5228 5231 5234 5237 5240 5243 5246 5249 5252 5256 5259 5262 5265 5268 5272 5276 5280 5284 5288 5292 5297 5301 5306 5310 5315 5321
5242 5238 5234 5230 5226 5221 5217 5213 5209 5206 5202 5198 5194 5191 5188 5186 5184 5182 5180 5179 5178 5177 5176 5176 5176 5176 5177 5178 5179 5180 5181 5183 5185 5187 5189 5191 5193 5196 5198 5200 5203 5205 5208 5210 5213 5215 5218 5221 5224 5227 5229 5232 5235 5238 5241 5245 5248 5251 5255 5258 5261 5264 5267 5271 5275 5279 5283 5287 5291 5296 5300 5305 5309 5314